Date String (YYYY-MM-DD hh:mm:ss) UTC,Instrument flags,Ambient pressure (hPa),Sample flow (lpm),Bypass flow (lpm),Sample temperature (°C),Ambient temperature (°C),ASC tube jacket temperature (°C),LED temperature (°C),Box temperature (°C),Sample RH (%),Span deviation,Mass concentration (μg/m³),Mass concentration (μg/m³),Mass concentration (μg/m³)
DateTimeUTC,F1_M11,P_M11,Q1_M11,Q2_M11,T1_M11,T2_M11,T3_M11,T4_M11,T5_M11,U1_M11,ZSPAN_M11,X0_M11,X2_M11,X1_M11
2021-11-15 18:00:00,,0828.7,4.99,0.00,29.5,28.6,00.0,38.5,31.2,08.6,0000.0,0000.83,0000.49,0000.30
2021-11-15 18:01:00,,0828.8,5.00,0.00,29.6,28.7,00.0,38.5,31.2,08.7,0000.0,0000.79,0000.46,0000.29
2021-11-15 18:02:00,,0828.7,5.00,0.00,29.6,28.7,00.0,38.5,31.2,08.7,0000.0,0000.79,0000.45,0000.29
2021-11-15 18:03:00,,0828.7,5.00,0.00,29.6,28.7,00.0,38.6,31.3,08.5,0000.0,0000.96,0000.46,0000.29
2021-11-15 18:04:00,,0828.8,5.00,0.00,29.6,28.7,00.0,38.6,31.3,08.4,0000.0,0000.99,0000.47,0000.28
2021-11-15 18:05:00,,0828.9,5.01,0.00,29.6,28.7,00.0,38.6,31.3,08.4,0000.0,0001.02,0000.47,0000.28
2021-11-15 18:06:00,,0829.1,5.00,0.00,29.6,28.7,00.0,38.6,31.2,08.4,0000.0,0001.14,0000.48,0000.28
2021-11-15 18:07:00,,0829.2,5.02,0.00,29.6,28.7,00.0,38.6,31.2,08.5,0000.0,0001.32,0000.47,0000.28
2021-11-15 18:08:00,,0829.3,4.99,0.00,29.6,28.7,00.0,38.6,31.2,08.7,0000.0,0001.29,0000.45,0000.27
2021-11-15 18:09:00,,0828.9,5.01,0.00,29.6,28.6,00.0,38.6,31.2,08.7,0000.0,0001.27,0000.44,0000.27
2021-11-15 18:10:00,,0828.6,4.99,0.00,29.6,28.7,00.0,38.6,31.3,08.8,0000.0,0001.32,0000.47,0000.28
2021-11-15 18:11:00,,0828.7,5.00,0.00,29.6,28.7,00.0,38.6,31.3,08.9,0000.0,0001.30,0000.46,0000.29
2021-11-15 18:12:00,,0828.5,5.01,0.00,29.6,28.7,00.0,38.6,31.3,09.0,0000.0,0001.40,0000.51,0000.29
2021-11-15 18:13:00,,0828.5,5.00,0.00,29.6,28.7,00.0,38.6,31.3,09.1,0000.0,0001.45,0000.54,0000.29
2021-11-15 18:14:00,,0828.5,5.00,0.00,29.6,28.7,00.0,38.6,31.3,09.0,0000.0,0001.30,0000.54,0000.29
2021-11-15 18:15:00,,0828.5,4.99,0.00,29.6,28.7,00.0,38.6,31.3,09.2,0000.0,0001.25,0000.53,0000.29
2021-11-15 18:16:00,,0828.5,4.99,0.00,29.6,28.7,00.0,38.6,31.3,09.2,0000.0,0001.23,0000.52,0000.29
2021-11-15 18:17:00,,0828.5,4.99,0.00,29.6,28.7,00.0,38.6,31.2,09.2,0000.0,0001.11,0000.51,0000.29
2021-11-15 18:18:00,,0828.9,5.01,0.00,29.6,28.7,00.0,38.6,31.3,09.3,0000.0,0000.82,0000.49,0000.29
2021-11-15 18:19:00,,0829.0,5.01,0.00,29.6,28.7,00.0,38.6,31.3,09.4,0000.0,0000.84,0000.50,0000.30
2021-11-15 18:20:00,,0828.8,5.01,0.00,29.6,28.8,00.0,38.6,31.3,09.4,0000.0,0000.93,0000.54,0000.31
2021-11-15 18:21:00,,0828.4,4.99,0.00,29.6,28.7,00.0,38.6,31.3,09.3,0000.0,0000.99,0000.58,0000.31
2021-11-15 18:22:00,,0828.5,5.00,0.00,29.6,28.7,00.0,38.6,31.3,09.3,0000.0,0001.05,0000.60,0000.31
2021-11-15 18:23:00,,0828.5,4.99,0.00,29.6,28.7,00.0,38.6,31.3,09.4,0000.0,0001.03,0000.59,0000.32
2021-11-15 18:24:00,,0828.5,5.01,0.00,29.6,28.7,00.0,38.6,31.2,09.4,0000.0,0001.03,0000.58,0000.33
2021-11-15 18:25:00,,0828.4,4.99,0.00,29.6,28.7,00.0,38.6,31.2,09.4,0000.0,0001.17,0000.59,0000.33
2021-11-15 18:26:00,,0828.4,5.01,0.00,29.6,28.6,00.0,38.6,31.3,09.4,0000.0,0001.26,0000.59,0000.33
2021-11-15 18:27:00,,0828.4,5.00,0.00,29.7,28.7,00.0,38.7,31.3,09.3,0000.0,0001.44,0000.61,0000.33
2021-11-15 18:28:00,,0828.3,5.01,0.00,29.7,28.7,00.0,38.7,31.3,09.3,0000.0,0001.53,0000.62,0000.33
2021-11-15 18:29:00,,0828.3,5.01,0.00,29.7,28.7,00.0,38.7,31.3,09.3,0000.0,0001.54,0000.63,0000.34
2021-11-15 18:30:00,,0828.2,5.00,0.00,29.7,28.7,00.0,38.7,31.3,09.3,0000.0,0001.57,0000.65,0000.34
2021-11-15 18:31:00,,0828.2,5.01,0.00,29.7,28.8,00.0,38.7,31.3,09.2,0000.0,0001.58,0000.66,0000.35
2021-11-15 18:32:00,,0828.1,4.99,0.00,29.7,28.8,00.0,38.7,31.3,09.1,0000.0,0001.55,0000.63,0000.35
2021-11-15 18:33:00,,0828.2,5.00,0.00,29.7,28.8,00.0,38.7,31.3,09.1,0000.0,0001.56,0000.62,0000.35
2021-11-15 18:34:00,,0828.2,5.00,0.00,29.7,28.7,00.0,38.7,31.3,09.1,0000.0,0001.61,0000.64,0000.34
2021-11-15 18:35:00,,0828.2,5.01,0.00,29.7,28.8,00.0,38.7,31.3,09.1,0000.0,0001.63,0000.64,0000.34
2021-11-15 18:36:00,,0828.2,4.99,0.00,29.7,28.8,00.0,38.7,31.3,09.1,0000.0,0001.52,0000.65,0000.35
2021-11-15 18:37:00,,0828.2,5.00,0.00,29.7,28.8,00.0,38.7,31.3,09.1,0000.0,0001.47,0000.65,0000.35
2021-11-15 18:38:00,,0828.1,5.01,0.00,29.7,28.7,00.0,38.7,31.3,09.0,0000.0,0001.39,0000.67,0000.35
2021-11-15 18:39:00,,0828.2,5.00,0.00,29.7,28.7,00.0,38.7,31.4,09.0,0000.0,0001.54,0000.71,0000.35
2021-11-15 18:40:00,,0828.3,5.00,0.00,29.7,28.8,00.0,38.7,31.4,09.0,0000.0,0001.66,0000.74,0000.35
2021-11-15 18:41:00,,0828.2,5.00,0.00,29.7,28.8,00.0,38.7,31.4,08.9,0000.0,0001.69,0000.71,0000.34
2021-11-15 18:42:00,,0828.2,5.00,0.00,29.7,28.8,00.0,38.7,31.4,09.0,0000.0,0001.83,0000.72,0000.33
2021-11-15 18:43:00,,0828.3,4.99,0.00,29.7,28.8,00.0,38.7,31.4,09.0,0000.0,0001.82,0000.72,0000.33
2021-11-15 18:44:00,,0828.2,5.00,0.00,29.7,28.8,00.0,38.7,31.4,09.0,0000.0,0001.73,0000.69,0000.33
2021-11-15 18:45:00,,0828.3,5.00,0.00,29.7,28.9,00.0,38.7,31.5,08.9,0000.0,0001.72,0000.68,0000.33
2021-11-15 18:46:00,,0828.3,5.00,0.00,29.7,28.9,00.0,38.7,31.5,08.9,0000.0,0001.75,0000.66,0000.33
2021-11-15 18:47:00,,0828.2,5.00,0.00,29.8,28.9,00.0,38.7,31.5,08.9,0000.0,0001.81,0000.66,0000.33
2021-11-15 18:48:00,,0828.3,4.99,0.00,29.8,28.9,00.0,38.7,31.5,08.9,0000.0,0001.76,0000.65,0000.33
2021-11-15 18:49:00,,0828.2,5.01,0.00,29.8,28.9,00.0,38.8,31.5,08.9,0000.0,0001.87,0000.63,0000.33
2021-11-15 18:50:00,,0828.3,4.99,0.00,29.8,28.9,00.0,38.8,31.5,08.9,0000.0,0002.73,0000.60,0000.33
2021-11-15 18:51:00,,0828.3,5.01,0.00,29.8,28.9,00.0,38.8,31.5,08.9,0000.0,0002.53,0000.56,0000.33
2021-11-15 18:52:00,,0828.2,4.99,0.00,29.8,29.0,00.0,38.8,31.5,08.9,0000.0,0002.52,0000.58,0000.33
2021-11-15 18:53:00,,0828.2,4.99,0.00,29.8,29.0,00.0,38.8,31.5,09.0,0000.0,0002.40,0000.58,0000.33
2021-11-15 18:54:00,,0828.2,5.00,0.00,29.8,29.0,00.0,38.8,31.5,09.0,0000.0,0002.88,0000.57,0000.33
2021-11-15 18:55:00,,0828.2,5.00,0.00,29.8,29.0,00.0,38.8,31.5,09.1,0000.0,0003.09,0000.59,0000.33
2021-11-15 18:56:00,,0828.2,5.01,0.00,29.8,29.0,00.0,38.8,31.5,09.1,0000.0,0003.02,0000.57,0000.33
2021-11-15 18:57:00,,0828.2,4.99,0.00,29.8,29.0,00.0,38.8,31.5,09.1,0000.0,0002.93,0000.57,0000.33
2021-11-15 18:58:00,,0828.2,4.99,0.00,29.8,29.0,00.0,38.8,31.5,09.1,0000.0,0002.81,0000.55,0000.33
2021-11-15 18:59:00,,0828.3,5.00,0.00,29.8,29.0,00.0,38.8,31.5,09.1,0000.0,0002.85,0000.56,0000.32
